Regional Weather Roundup
Issued by NWS

Home | Current Version | Previous Version | Text Only | Print | Product List | Glossary On
Versions: 1 2 3 4 5 6 7 8 9 10 11 12 13 14 15 16 17 18 19 20 21 22 23 24 25 26 27 28 29 30 31 32 33 34 35 36 37 38 39 40 41 42 43 44 45 46 47 48 49 50
000
ASUS42 KFFC 271803
RWRGA
WEATHER ROUNDUP FOR GEORGIA
NATIONAL WEATHER SERVICE PEACHTREE CITY GA
100 PM EST THU NOV 27 2014

NOTE: "FAIR" INDICATES FEW OR NO CLOUDS BELOW 12,000 FEET WITH NO
SIGNIFICANT WEATHER AND/OR OBSTRUCTIONS TO VISIBILITY.

* = USE WITH CAUTION. THE STATIONS MARKED WITH AN ASTERISK MAY NOT
REPORT WEATHER SUCH AS PRECIPITATION, FOG, OR THUNDER AND ARE NOT
QUALITY CONTROLLED BY NWS.

THE REMARK "TC" DENOTES TEMPERATURE READING IN DEGREES CELSIUS.

GAZ001>058-271900-
NORTH GEORGIA

CITY           SKY/WX    TMP DP  RH WIND       PRES   REMARKS
ATLANTA        PTSUNNY   45  29  53 NW14G21   30.27F
6HR MIN TEMP:  40; 6HR MAX TEMP:  46;

ATHENS         MOSUNNY   50  27  40 NW17G25   30.21F
6HR MIN TEMP:  40; 6HR MAX TEMP:  50;

CHAMBLEE       PTSUNNY   44  28  53 NW15G25   30.26F
6HR MIN TEMP:  39; 6HR MAX TEMP:  45;

PEACHTREE CITY CLOUDY    47  27  45 NW14G21   30.29F
6HR MIN TEMP:  41; 6HR MAX TEMP:  49;

ROME           CLOUDY    43  28  55 NW12      30.33S
6HR MIN TEMP:  40; 6HR MAX TEMP:  45;

WEST ATLANTA   CLOUDY    46  29  51 NW17G26   30.28F
6HR MIN TEMP:  40; 6HR MAX TEMP:  46;

GAINESVILLE    PTSUNNY   44  25  47 NW15      30.24F
6HR MIN TEMP:  39; 6HR MAX TEMP:  46;

CARTERSVILLE   CLOUDY    43  26  51 VRB6      30.32S
6HR MIN TEMP:  38; 6HR MAX TEMP:  44;



CITY           SKY/WX    TMP DP  RH WIND       PRES   REMARKS
DALTON*        CLOUDY    41  30  65 NW14      30.31F
LAWRENCEVILLE* PTSUNNY   45  25  45 NW13G21   30.24F
MARIETTA       CLOUDY    45  29  54 NW14G24   30.27F
$$

GAZ059>098-102>109-271900-
CENTRAL GEORGIA

CITY           SKY/WX    TMP DP  RH WIND       PRES   REMARKS
AUGUSTA-BUSH   SUNNY     54  28  36 NW21G30   30.18F
6HR MIN TEMP:  41; 6HR MAX TEMP:  55;

AUGUSTA-DANIEL MOSUNNY   53  28  38 NW20G25   30.18F
6HR MIN TEMP:  45; 6HR MAX TEMP:  53;

COLUMBUS       MOSUNNY   51  27  39 N13G24    30.30F
6HR MIN TEMP:  40; 6HR MAX TEMP:  52;

MACON          MOSUNNY   51  27  39 NW16G24   30.27F
6HR MIN TEMP:  41; 6HR MAX TEMP:  53;

ROBINS AFB     MOSUNNY   53  28  38 N21G26    30.26F


CITY           SKY/WX    TMP DP  RH WIND       PRES   REMARKS
LAGRANGE*      PTSUNNY   52  32  45 NW20      30.32S
SYLVANIA*      SUNNY     55  34  45 NW21      30.18F
MILLEDGEVILLE* PTSUNNY   52  34  50 NW15G25   30.25F
$$

GAZ099>101-110>166-271900-
SOUTH GEORGIA

CITY           SKY/WX    TMP DP  RH WIND       PRES   REMARKS
SAVANNAH       MOSUNNY   57  30  35 NW20G25   30.17F
6HR MIN TEMP:  43; 6HR MAX TEMP:  58;

VALDOSTA       SUNNY     58  33  39 NW10G17   30.26F
6HR MIN TEMP:  38; 6HR MAX TEMP:  58;

ALMA           SUNNY     55  31  39 W18G25    30.23F
6HR MIN TEMP:  36; 6HR MAX TEMP:  55;

ST SIMONS      SUNNY     57  31  37 NW17G26   30.19F
6HR MIN TEMP:  47; 6HR MAX TEMP:  58;

FT STEWART     SUNNY     56  29  36 W17G26    30.17F
ALBANY         MOSUNNY   56  33  42 N14G22    30.30F
HUNTER AFB     SUNNY     56  32  38 NW18G28   30.15F
MOODY AFB      SUNNY     57  33  39 NW17G23   30.25F
BRUNSWICK      SUNNY     59  30  33 NW16      30.20F


CITY           SKY/WX    TMP DP  RH WIND       PRES   REMARKS
BAINBRIDGE*    SUNNY     61  37  41 NW15      30.30F
MOULTRIE*      SUNNY     54  34  47 NW15G21   30.28F
VIDALIA*       SUNNY     54  32  43 NW15      30.22F
WAYCROSS*      SUNNY     59  36  41 NW17G24   30.23F
DOUGLAS*       MOSUNNY   55  32  41 NW13G22   30.25F
$$


USA.gov is the U.S. government's official web portal to all federal, state and local government web resources and services.